Hourly Data Report for October 17, 2015

All times are specified in Local Standard Time (LST). Add 1 hour to adjust for Daylight Saving Time where and when it is observed.

ST LEONARD CS
NEW BRUNSWICK

47°09'28.050" N
67°49'55.014" W
245.00 m
810I001
71019
WIY

Download Data

Hourly Data (October 2015)
Hourly Data Report for October 17, 2015
Temp Definition
°C
Dew Point Temp Definition
°C
Rel Hum Definition
%
Wind Dir Definition
10's deg

Wind Spd Definition
km/h
Visibility Definition
km
Stn Press Definition
kPa
Hmdx Definition


Wind Chill Definition


Weather Definition


TIME
00:00 -1.7 -1.9 98 14 4   98.28   -3 LegendNANA
01:00 -1.0 -1.2 98 16 5   98.28   -3 LegendNANA
02:00 -2.2 -2.5 98 0 1   98.26   -3 LegendNANA
03:00 -2.7 -2.9 99 24 5   98.22   -5 LegendNANA
04:00 -2.3 -2.4 99 21 4   98.24   -4 LegendNANA
05:00 -3.5 -3.8 98 22 3   98.25   -5 LegendNANA
06:00 -3.1 -3.2 99 15 7   98.25   -6 LegendNANA
07:00 -3.4 -3.7 98 0 1   98.28   -4 LegendNANA
08:00 -1.6 -1.8 99 36 1   98.32   -2 LegendNANA
09:00 -0.8 -1.1 97 23 6   98.43   -3 LegendNANA
10:00 -0.1 -0.4 98 4 3   98.36   -1 LegendNANA
11:00 -0.1 -0.5 97 32 3   98.34   -1 LegendNANA
12:00 0.2 -0.3 97 35 6   98.32     LegendNANA
13:00 0.5 -0.2 95 1 5   98.27     LegendNANA
14:00 0.8 -0.3 92 1 4   98.25     LegendNANA
15:00 1.0 -0.4 90 1 4   98.24     LegendNANA
16:00 1.3 0.0 91 26 3   98.26     LegendNANA
17:00 1.2 0.6 95 26 6   98.31     LegendNANA
18:00 0.5 0.1 97 32 9   98.35     LegendNANA
19:00 0.2 -0.2 97 31 5   98.37     LegendNANA
20:00 -0.7 -1.0 98 28 9   98.40   -4 LegendNANA
21:00 -1.5 -1.8 98 27 7   98.44   -4 LegendNANA
22:00 -1.7 -2.0 98 28 9   98.46   -5 LegendNANA
23:00 -2.2 -2.7 97 28 9   98.45   -6 LegendNANA

Notes on Data Quality.

Legend

  • E = Estimated
  • M = Missing
  • NA = Not Available
  • ‡ = Partner data that is not subject to review by the National Climate Archives
Date modified: